This is the latest recevied weather packets stored in our database for station/object N2PUI. If no packets are shown the sender has not sent any weather packets the latest 10 day(s).
| Time | Temp. | Humidity | Pressure | Rain* | Wind** | Luminosity | Snow |
|---|---|---|---|---|---|---|---|
| 1777620863 | 0.56° C | 88% | 1013 hPa | 0 mm | - | 0 W/m² | - |
| 1777620559 | 0.56° C | 88% | 1013.1 hPa | 0 mm | - | 0 W/m² | - |
| 1777620256 | 0.56° C | 88% | 1013.1 hPa | 0 mm | - | 0 W/m² | - |
| 1777619953 | 1.11° C | 88% | 1013.1 hPa | 0 mm | - | 0 W/m² | - |
| 1777619649 | 0.56° C | 87% | 1012.8 hPa | 0 mm | - | 0 W/m² | - |
| 1777619344 | 0.56° C | 87% | 1012.9 hPa | 0 mm | - | 0 W/m² | - |
| 1777619038 | 1.11° C | 86% | 1013.1 hPa | 0 mm | - | 0 W/m² | - |
| 1777618733 | 1.11° C | 86% | 1013.1 hPa | 0 mm | - | 0 W/m² | - |
| 1777618429 | 1.11° C | 86% | 1013 hPa | 0 mm | - | 0 W/m² | - |
| 1777618125 | 1.11° C | 85% | 1012.8 hPa | 0 mm | - | 0 W/m² | - |
| 1777617822 | 1.11° C | 85% | 1013 hPa | 0 mm | - | 0 W/m² | - |
| 1777617521 | 1.67° C | 85% | 1013.3 hPa | 0 mm | - | 0 W/m² | - |
| 1777617219 | 1.67° C | 84% | 1013.3 hPa | 0 mm | - | 0 W/m² | - |
| 1777616916 | 1.67° C | 84% | 1013.1 hPa | 0 mm | - | 0 W/m² | - |
| 1777616611 | 2.22° C | 84% | 1012.8 hPa | 0 mm | - | 0 W/m² | - |
| 1777616306 | 2.22° C | 84% | 1012.9 hPa | 0 mm | - | 0 W/m² | - |
| 1777616003 | 2.22° C | 84% | 1012.9 hPa | 0 mm | - | 0 W/m² | - |
| 1777615700 | 2.22° C | 83% | 1012.8 hPa | 0 mm | - | 0 W/m² | - |
| 1777615397 | 2.22° C | 83% | 1013 hPa | 0 mm | - | 0 W/m² | - |
| 1777615096 | 2.78° C | 83% | 1013 hPa | 0 mm | - | 0 W/m² | - |
| 1777614792 | 2.78° C | 83% | 1013 hPa | 0 mm | - | 0 W/m² | - |
| 1777614488 | 2.78° C | 83% | 1012.9 hPa | 0 mm | - | 0 W/m² | - |
| 1777614184 | 2.78° C | 83% | 1012.9 hPa | 0 mm | - | 0 W/m² | - |
| 1777613879 | 2.78° C | 82% | 1013 hPa | 0 mm | - | 0 W/m² | - |
| 1777613577 | 2.78° C | 82% | 1012.7 hPa | 0 mm | - | 0 W/m² | - |
* Rain latest hour (hover to see other rain measurements)
** Current wind speed in m/s (hover to see current wind gust speed)